Theta_e
308 309 311 311 310 309 309 308 307 306 306 306 305 306 306 309 302 300 313 321 315 314 314 317 323 328 337 323 324 326 328 328 334 353 350 348 348 352 351 355 355 355 357 366 366 362 362 362 359 359 358 357 357 357 354 353 352 353 356 358 360 365 367 366 366 368 369 369 369 369 369 368 366 365 364 363 364 364 362 360 358 356 355 351 349 348 348
308 309 309 310 309 309 309 308 307 307 307 306 306 306 307 306 309 311 310 318 313 313 314 316 319 326 324 325 328 326 327 323 330 337 346 346 347 348 349 354 356 358 357 362 368 365 365 363 361 359 359 359 358 357 355 354 353 353 358 359 360 364 367 367 369 370 371 371 370 371 369 367 367 366 365 364 363 363 361 359 358 356 354 351 349 347 347
307 309 310 309 309 309 308 308 309 309 308 307 307 306 307 308 307 308 307 310 311 315 322 320 321 323 324 328 323 322 326 326 324 326 325 333 329 340 347 356 356 357 357 359 365 365 364 364 362 360 360 361 360 357 356 353 354 355 359 360 361 364 367 369 371 372 372 372 372 370 369 368 368 367 365 364 363 363 362 360 357 356 353 348 347 346 346
305 309 309 309 309 309 308 308 308 308 308 306 307 306 308 306 308 310 307 308 308 313 319 318 323 323 323 321 323 326 333 327 327 327 325 326 338 336 340 350 353 355 355 356 361 363 363 363 364 362 363 363 362 357 357 354 353 355 360 361 361 364 369 371 372 373 373 373 372 371 369 368 368 367 365 364 364 364 363 360 359 356 351 348 347 346 346
304 308 309 309 309 307 303 305 307 309 310 310 310 311 311 310 309 305 305 306 313 317 320 317 318 317 321 322 321 323 325 335 333 329 328 327 331 339 351 353 354 354 353 355 360 362 362 363 364 364 365 363 362 360 359 359 358 355 361 362 363 366 371 372 373 374 374 372 370 369 368 368 368 367 366 364 364 363 361 361 360 355 351 348 346 346 346
303 307 308 309 304 297 299 310 313 312 309 310 308 308 310 311 311 309 311 311 319 319 316 316 318 319 320 327 330 331 338 341 340 336 335 329 329 329 333 355 355 357 357 356 360 363 364 364 362 363 365 364 364 363 364 364 361 358 363 365 365 368 372 372 374 373 372 370 369 368 368 367 367 366 365 364 364 363 361 361 358 354 350 348 348 348 347
301 306 307 301 296 298 312 315 315 314 313 312 311 311 312 313 314 314 312 313 314 319 318 319 320 321 323 325 327 323 323 328 327 329 331 338 342 343 341 346 356 360 362 362 364 367 364 362 363 363 364 366 365 364 365 364 363 362 366 367 367 370 372 373 372 371 370 369 368 367 367 366 365 365 364 365 364 362 360 358 354 351 348 346 347 348 347
306 304 303 295 296 309 312 314 316 317 315 313 311 309 311 313 314 316 320 317 316 318 317 316 321 325 320 319 324 337 327 324 326 323 323 325 328 330 334 339 345 364 363 363 364 367 365 365 361 361 363 362 360 361 364 364 363 366 369 368 368 371 371 371 370 370 369 368 367 366 365 365 364 363 363 364 362 361 359 357 355 352 350 347 347 347 347
301 302 302 302 311 308 310 311 313 313 311 311 309 304 309 315 317 316 322 319 319 322 319 317 318 320 318 319 320 320 320 323 324 323 323 323 327 327 331 333 341 370 366 366 365 369 367 364 362 362 363 362 362 360 359 360 363 367 369 368 368 371 370 369 369 369 368 366 365 364 363 361 360 360 362 363 363 363 360 357 354 350 349 348 348 346 346
307 302 301 302 302 299 306 319 318 320 320 319 319 316 312 319 326 324 321 320 325 325 324 327 327 328 325 313 315 321 320 321 322 323 323 323 325 328 330 333 334 357 368 367 368 368 366 364 363 364 364 364 364 362 360 361 361 364 367 368 371 371 370 369 368 368 367 364 363 362 360 359 358 358 359 362 363 363 360 356 353 351 351 349 349 348 345
305 303 300 300 299 305 318 317 318 320 321 319 319 313 307 324 329 328 327 325 326 323 326 328 327 323 317 317 318 322 322 322 322 322 323 323 324 326 327 329 331 357 367 366 368 367 366 363 364 368 366 364 362 362 362 360 359 362 367 370 371 370 369 369 368 366 365 364 361 359 359 357 356 356 357 359 361 362 360 359 356 354 350 349 349 349 347
307 305 301 301 305 309 315 318 318 319 321 319 315 302 303 328 329 328 330 325 325 330 331 330 328 325 317 316 324 324 322 322 324 327 332 334 328 328 334 336 365 367 368 368 366 364 364 365 366 369 366 365 361 361 362 362 362 365 368 370 371 369 368 367 366 365 363 362 360 358 359 358 357 358 358 357 358 358 358 357 356 354 351 349 346 346 345
304 304 303 306 308 319 320 318 320 320 320 317 305 298 310 326 327 327 329 328 328 332 332 332 327 330 332 332 331 326 325 324 323 327 339 341 339 336 331 333 361 370 368 367 363 362 364 366 366 366 365 364 362 363 365 363 364 367 370 371 370 368 367 364 363 362 361 360 358 358 359 357 357 357 357 356 357 359 356 356 354 350 348 346 344 340 338
303 304 302 305 308 318 321 321 320 321 315 304 304 320 327 327 325 328 327 328 330 331 332 333 334 334 335 333 331 328 325 323 327 333 334 340 341 340 335 352 362 364 361 365 365 361 367 367 366 367 366 364 364 365 365 365 367 370 371 370 368 366 365 363 361 360 358 360 358 357 358 359 358 357 359 360 359 359 356 355 351 349 347 344 343 340 335
305 305 302 299 294 317 321 319 317 320 311 314 323 325 327 328 328 329 330 330 332 334 334 335 335 334 334 336 336 333 330 330 336 340 345 353 347 352 362 361 362 358 359 360 358 359 365 367 367 367 367 364 364 364 365 367 369 370 368 367 366 364 363 361 359 358 358 357 356 357 358 359 358 357 359 360 360 358 355 352 350 348 348 343 342 340 338
300 300 298 298 308 316 320 317 312 320 323 326 329 325 324 326 325 327 327 329 329 328 328 329 334 336 336 335 335 336 336 334 336 346 351 351 354 356 354 356 357 355 359 359 359 363 363 366 367 368 367 363 363 363 365 368 368 366 366 366 364 362 359 359 358 356 357 356 357 358 358 357 357 357 357 357 356 355 354 351 349 348 347 342 339 337 336
305 304 307 317 322 321 321 322 324 326 328 328 326 326 323 323 325 329 330 329 329 328 330 330 329 334 337 337 335 335 341 331 338 347 352 352 349 351 355 357 362 361 360 362 362 363 366 368 368 368 367 363 362 363 365 366 364 364 363 362 361 359 358 357 356 355 355 355 355 356 356 356 354 353 353 354 352 353 352 351 349 346 345 342 341 340 337
320 320 321 322 322 321 321 323 324 323 324 325 326 326 325 325 326 329 332 333 335 336 337 336 338 337 337 338 339 341 343 343 344 344 344 341 343 348 354 360 360 360 364 363 362 363 365 368 367 366 367 365 361 363 365 363 364 363 362 360 359 358 357 356 355 354 354 353 355 355 354 354 354 353 352 350 350 350 350 348 348 346 345 342 339 337 336
311 305 322 320 320 322 321 320 322 324 324 324 327 328 328 328 330 332 335 335 334 333 334 336 334 332 335 333 334 339 340 338 340 343 344 344 343 338 333 335 348 359 360 357 360 361 361 364 365 365 364 364 364 364 364 363 363 363 360 358 356 357 356 354 355 354 352 351 352 352 352 352 352 352 352 351 350 348 348 346 346 344 342 340 337 335 335
312 314 320 321 322 322 323 321 322 322 325 327 328 330 331 331 331 330 329 329 327 330 332 333 333 333 333 333 332 333 333 334 336 340 342 342 340 339 340 341 341 343 345 349 352 356 353 357 359 362 362 362 362 362 361 360 360 360 357 357 354 353 352 352 352 351 349 352 351 350 348 346 346 348 350 349 348 348 347 346 343 341 340 338 336 335 336
316 319 320 322 322 321 321 322 323 324 326 326 326 327 327 327 326 326 326 326 324 325 325 329 332 332 333 335 334 332 331 332 333 336 339 338 338 339 339 340 341 343 345 345 345 346 353 355 356 356 356 356 356 356 356 357 358 354 352 351 352 351 350 350 349 350 349 350 344 338 331 322 316 314 315 323 338 333 326 325 342 342 341 340 339 339 339
311 312 315 318 313 313 319 321 322 324 326 326 324 324 323 323 323 324 323 323 324 324 324 324 326 328 333 335 335 333 332 331 331 336 338 339 338 337 339 340 342 343 344 344 347 348 351 352 354 354 354 354 355 356 356 355 354 352 351 349 349 347 347 346 347 347 347 344 339 336 331 325 321 316 308 297 304 327 326 313 305 307 322 339 341 340 341
308 315 320 323 321 319 321 322 324 325 325 324 322 321 321 321 322 321 320 319 321 321 322 323 324 325 327 331 334 333 333 333 335 337 334 334 335 336 337 339 341 341 345 348 349 348 349 350 350 350 351 351 354 354 355 355 353 353 353 349 347 346 345 344 343 346 344 340 338 337 335 332 330 327 323 315 297 296 302 303 300 298 299 304 316 324 335
317 321 322 324 320 317 318 321 323 324 326 324 321 321 321 321 320 320 318 318 318 318 319 320 321 323 324 325 327 329 334 335 334 335 337 336 338 345 344 346 347 348 348 347 348 348 350 350 351 352 350 352 355 354 356 355 355 356 354 351 347 345 344 345 344 346 343 340 339 338 336 335 333 330 328 325 319 300 295 297 298 295 296 300 306 310 312
317 322 322 324 320 319 320 321 321 322 323 322 322 323 323 321 320 321 319 318 317 317 316 316 319 319 320 322 323 323 325 328 332 335 335 336 339 340 341 345 348 348 348 349 349 349 350 350 350 350 351 352 354 352 354 354 354 354 354 354 347 345 345 345 345 345 341 340 339 339 338 337 335 334 331 328 324 319 310 298 295 294 294 295 298 301 303
322 324 323 322 322 320 321 320 320 320 321 321 320 320 322 323 323 322 320 319 318 318 317 316 315 315 317 318 321 321 323 323 325 329 331 334 336 337 338 340 343 347 348 350 349 348 347 349 349 348 348 349 350 351 351 353 354 354 353 347 344 344 342 343 344 343 341 340 339 339 339 339 338 337 335 333 330 325 322 321 320 309 300 296 295 295 294
322 324 321 320 317 316 318 316 315 319 319 319 319 319 320 322 323 323 323 322 321 321 319 317 315 315 316 317 318 318 319 321 323 327 328 329 331 333 336 339 343 345 346 347 349 349 349 349 347 347 347 347 349 351 350 351 353 351 350 350 347 346 348 346 343 342 341 340 339 339 337 339 338 337 336 336 333 329 328 327 327 325 321 314 300 296 303
317 317 318 315 314 315 316 318 319 319 319 318 317 317 318 320 321 321 320 321 323 324 322 319 316 316 317 317 317 315 314 316 318 320 325 326 326 330 336 338 339 341 342 343 346 348 347 347 346 346 345 348 349 350 348 349 350 349 347 344 343 343 344 344 342 342 341 342 341 340 338 338 339 337 336 335 334 332 330 331 331 327 324 317 308 297 293
314 317 318 319 319 319 319 320 320 318 318 320 321 319 317 317 318 317 316 316 319 321 319 318 320 320 318 320 320 315 314 319 322 317 321 325 325 324 331 337 339 339 340 342 340 343 346 346 346 345 345 348 347 347 346 345 345 343 341 340 339 339 340 342 342 340 341 341 340 339 335 335 335 336 335 335 334 335 334 333 332 327 320 314 312 310 308
313 314 316 316 316 316 315 314 315 316 315 316 316 317 319 319 318 317 315 313 313 314 315 315 317 318 321 320 319 316 316 320 323 319 321 325 324 324 323 329 336 337 337 337 340 344 345 344 344 343 344 344 344 346 344 348 346 345 343 342 340 340 342 343 342 342 341 339 337 333 337 335 339 337 333 333 334 333 332 332 329 324 321 319 318 317 316
314 315 314 314 314 314 314 314 315 316 317 317 317 316 317 318 317 317 318 318 316 315 316 315 317 320 322 320 317 318 322 325 326 320 322 324 322 322 324 326 326 332 333 335 339 341 343 344 344 343 346 343 342 344 346 348 348 344 342 341 340 328 328 330 333 339 337 336 336 335 335 335 334 334 332 331 332 332 333 330 328 326 324 323 323 322 320
312 313 314 313 313 312 313 314 313 313 315 316 316 315 315 315 314 315 317 318 320 321 320 317 315 317 323 328 325 323 323 325 327 326 326 323 321 319 322 330 330 335 334 335 337 339 341 340 341 345 346 348 347 345 343 344 346 340 337 339 336 336 334 331 335 336 338 336 335 335 335 335 333 334 334 333 334 333 332 331 329 327 325 325 324 325 321
311 310 311 311 312 312 312 314 313 312 313 315 316 317 317 317 317 317 317 318 318 319 320 318 317 320 322 324 324 326 327 328 328 328 326 325 325 321 321 330 332 335 334 335 337 338 340 337 339 343 346 348 345 342 338 340 341 337 336 336 335 336 337 331 332 337 338 335 334 335 335 336 336 334 334 334 334 332 332 331 329 328 327 326 327 327 322
311 310 311 312 312 311 311 313 315 314 315 315 316 316 316 317 317 317 317 318 318 318 318 320 323 324 326 323 323 324 325 327 327 326 323 322 327 329 329 326 333 333 331 331 331 333 338 340 340 339 341 342 344 337 337 334 340 339 338 336 334 333 333 336 336 336 335 333 334 336 338 336 335 333 333 333 332 333 331 330 329 328 328 329 328 325 314
315 315 315 314 315 314 314 314 313 313 314 314 314 316 317 317 317 317 318 318 317 317 319 320 320 321 321 322 325 325 323 322 323 322 323 325 327 326 330 328 330 332 330 330 330 332 334 337 336 337 338 338 339 333 338 334 334 336 336 335 332 331 333 336 334 333 332 332 335 335 335 333 332 333 333 332 330 331 329 329 328 327 327 325 324 322 317
316 315 315 315 316 316 316 315 315 315 315 314 315 315 316 316 316 316 316 317 318 318 319 320 320 320 319 320 319 318 319 322 325 325 325 325 327 330 330 329 329 330 328 329 331 333 336 336 336 338 338 339 336 338 339 335 333 334 338 334 333 331 332 332 333 334 335 335 334 333 333 334 333 330 330 332 329 329 328 328 326 327 326 325 323 322 320
318 317 316 316 316 316 315 316 316 315 315 315 316 315 316 316 316 318 318 318 318 319 319 319 319 319 318 319 320 320 321 323 322 324 326 328 329 329 325 326 327 326 328 326 329 331 335 333 336 337 339 338 331 338 341 344 339 338 337 334 334 335 332 331 331 334 335 335 331 332 330 329 329 329 329 328 328 327 326 326 325 325 325 324 324 323 322
317 317 317 316 316 315 315 315 316 316 316 315 317 318 318 318 318 318 318 319 319 319 321 319 319 320 321 323 321 320 321 322 322 323 326 328 327 325 325 325 324 325 325 327 331 334 334 336 336 337 338 340 338 336 337 340 339 336 334 333 333 335 332 331 332 331 330 331 331 330 328 327 326 327 327 327 327 326 325 326 324 323 323 324 324 323 321
315 316 317 316 316 316 316 316 316 317 316 315 316 317 318 319 319 318 318 319 320 321 320 320 320 320 320 320 320 319 320 321 321 321 323 326 328 324 324 326 328 328 331 331 330 333 333 334 337 336 336 335 336 333 335 335 335 337 336 336 335 333 331 332 330 330 330 332 330 330 328 326 326 326 326 326 327 326 325 325 325 323 322 323 323 322 321
314 314 314 314 314 316 315 315 315 316 316 317 317 316 318 318 318 318 318 319 320 322 321 321 320 319 319 320 319 319 322 323 324 324 324 325 326 324 324 325 327 329 330 330 330 329 332 332 332 333 334 332 332 333 334 334 333 333 335 332 335 331 331 334 330 330 330 330 329 327 327 326 327 325 324 325 325 324 324 324 322 322 322 323 322 321 321
314 314 314 315 315 315 315 315 315 316 316 317 317 318 319 318 318 318 318 318 320 321 322 321 320 319 320 320 320 320 323 323 323 323 324 324 323 322 320 321 326 328 328 327 330 330 333 330 330 330 332 331 331 333 331 331 330 331 330 329 329 328 329 330 329 328 328 327 327 326 326 325 324 324 322 324 323 323 323 322 321 321 322 320 320 320 320
313 314 314 314 315 315 316 316 316 315 316 317 318 317 317 318 317 316 319 318 318 318 320 321 320 321 320 320 320 320 320 321 322 323 323 323 322 322 322 322 325 327 329 330 329 329 328 328 330 331 330 330 330 332 334 330 329 329 328 330 330 329 329 328 328 326 328 327 326 326 325 325 323 322 321 321 321 320 320 320 320 320 321 321 320 318 318
313 313 313 314 314 314 314 315 315 315 315 315 315 315 316 317 316 317 315 317 316 317 318 318 320 320 321 319 319 320 320 321 321 321 322 321 322 323 322 323 327 328 329 330 328 326 325 326 326 326 328 328 328 331 332 328 328 328 328 328 328 328 328 327 327 327 326 327 326 324 324 321 320 321 320 320 320 320 320 318 317 320 319 320 317 317 320
313 312 312 312 312 313 314 313 312 313 312 313 317 318 317 317 317 316 315 316 316 315 315 316 315 317 318 318 317 318 319 319 319 319 319 320 320 322 324 324 325 327 329 327 326 325 323 322 323 325 326 327 330 330 328 326 325 326 326 326 325 326 327 326 326 326 325 324 324 322 321 323 321 320 324 319 318 319 319 318 317 319 319 320 317 316 316
314 314 314 314 315 315 314 313 313 311 312 314 314 316 317 314 317 316 316 317 317 315 317 316 316 315 315 314 318 319 321 321 322 320 316 315 315 316 321 321 322 322 326 327 326 325 323 322 323 325 326 328 328 328 326 325 325 325 326 325 326 325 324 324 324 324 324 323 323 322 322 321 322 321 322 318 320 317 317 317 319 318 317 316 317 317 318
314 314 315 315 314 315 315 314 315 314 315 314 311 314 318 319 314 319 316 315 315 315 315 316 317 316 315 315 317 318 316 316 315 318 324 319 318 321 321 319 319 322 324 326 326 325 323 322 325 325 325 327 326 323 322 324 324 324 324 327 324 324 323 322 322 321 321 321 321 321 322 321 321 319 320 320 319 318 318 317 316 318 318 317 317 319 322
314 314 315 315 315 315 315 316 317 316 313 313 312 312 315 316 316 314 315 316 318 316 318 318 317 319 321 320 319 318 313 313 317 316 317 318 324 320 320 321 320 320 320 323 323 324 323 324 322 322 325 324 326 324 322 322 324 323 322 322 322 322 323 323 322 321 321 322 321 321 322 321 323 322 321 321 319 319 318 319 318 317 319 315 315 316 314
314 314 313 315 315 315 316 316 314 312 312 315 313 315 314 318 317 318 315 317 316 317 318 315 317 318 322 318 319 318 319 317 311 313 315 316 316 318 319 320 320 320 320 321 325 325 326 326 326 324 324 324 323 323 322 322 321 322 321 322 326 322 321 322 320 320 320 321 321 323 320 319 320 320 319 318 318 317 317 317 315 316 316 317 317 317 318
315 315 316 316 315 315 315 314 313 314 313 315 317 315 316 315 318 317 314 316 316 316 312 313 313 316 318 322 321 316 319 322 323 316 319 317 317 316 316 323 325 324 318 318 317 321 326 324 323 324 323 326 323 322 322 322 322 322 321 322 320 320 321 321 321 322 320 320 319 319 321 317 319 322 319 318 317 317 316 316 316 316 316 316 316 317 317
314 313 313 313 313 313 312 312 312 314 316 315 316 315 315 313 312 314 315 313 313 314 312 312 313 318 316 315 315 318 320 321 320 322 319 319 317 320 318 318 319 318 318 318 319 319 332 325 324 324 325 324 323 320 321 322 321 323 323 322 321 320 319 319 314 316 317 318 317 319 319 318 319 319 317 317 317 317 319 318 319 315 311 313 315 315 315
317 314 313 316 314 315 316 316 316 316 316 315 314 314 315 313 312 313 313 313 313 312 311 312 312 313 313 314 315 315 317 317 317 318 318 316 320 316 316 316 317 319 318 315 315 315 317 325 324 324 322 322 320 319 319 319 319 320 322 321 321 321 320 319 318 318 319 319 318 318 321 318 319 322 318 316 316 316 316 315 316 317 315 315 315 316 316
314 318 324 314 313 314 315 315 317 318 318 315 314 313 312 312 312 312 312 314 312 311 311 311 311 312 312 313 313 313 315 315 315 314 316 316 315 313 315 317 315 313 313 314 315 317 315 316 318 319 320 318 318 317 321 322 318 317 318 318 320 319 321 320 319 319 319 320 318 318 318 318 318 317 317 319 317 316 318 317 317 316 316 317 317 317 317
Wind_Speed
25 23 18 17 15 16 16 18 19 21 22 23 23 19 21 15 14 15 9 7 10 12 18 16 9 7 3 7 10 10 6 4 7 2 7 12 15 14 13 12 11 12 11 9 11 13 14 15 16 16 16 16 15 14 15 16 17 18 15 15 15 16 17 15 15 15 15 14 14 14 14 13 13 13 13 12 12 14 14 14 13 16 15 15 14 14 14
21 24 26 22 20 17 19 17 19 20 20 23 23 20 22 25 17 14 14 9 12 16 20 19 16 8 8 8 9 11 11 13 10 5 12 12 11 11 11 10 11 11 11 9 10 12 12 14 15 15 14 15 16 16 16 16 15 15 14 15 15 16 17 15 13 14 14 13 13 13 13 14 14 13 12 12 12 13 15 14 12 12 13 14 14 15 15
18 23 24 24 23 20 20 19 19 20 22 21 21 22 23 22 23 23 17 16 16 12 9 14 16 14 11 6 10 14 13 15 17 15 14 13 14 14 9 7 8 10 11 11 11 12 13 14 15 15 14 14 14 17 16 18 16 15 15 15 15 15 16 14 13 13 13 13 12 13 14 12 12 12 12 11 10 11 12 13 13 12 13 15 14 14 15
13 18 23 23 22 22 21 19 20 23 25 22 20 16 17 18 12 12 21 16 13 11 12 14 11 12 14 16 13 10 6 11 14 13 15 15 10 17 16 15 14 13 13 14 14 14 15 15 14 14 13 13 13 16 16 17 16 15 14 16 16 15 14 13 13 13 12 12 12 12 11 12 11 11 10 10 10 10 11 13 12 11 13 14 13 13 13
13 14 17 18 20 19 20 22 22 21 20 16 13 18 21 19 18 16 12 12 9 9 9 13 12 15 13 14 14 13 12 8 8 11 13 12 9 6 14 16 15 15 16 15 15 16 15 14 14 16 15 14 15 15 14 14 13 14 14 15 15 14 13 14 13 13 12 12 12 11 11 10 10 10 10 10 10 10 11 10 9 9 10 12 13 12 12
12 15 14 13 13 17 16 13 18 20 20 20 23 19 18 20 19 13 14 12 7 10 11 12 9 12 12 8 8 8 4 4 5 6 7 13 13 12 8 14 17 15 14 12 14 16 16 17 20 17 15 15 14 13 11 11 13 13 12 13 14 14 13 13 13 13 12 12 12 11 11 10 9 9 10 11 9 8 8 7 7 7 9 11 11 11 11
11 11 14 15 19 17 11 11 13 17 21 22 23 20 18 17 16 19 21 19 17 11 7 8 11 13 14 12 7 12 16 11 12 12 10 8 5 5 6 5 13 14 14 14 15 15 17 18 15 14 13 12 12 13 12 13 13 11 11 13 13 13 13 12 12 13 12 12 12 11 11 10 10 9 9 8 7 8 8 9 10 9 9 10 10 10 11
9 12 13 16 17 10 13 12 9 13 17 21 21 22 22 16 6 13 13 11 13 17 16 15 11 9 15 17 12 5 10 14 14 18 17 16 13 12 9 8 6 16 15 15 16 16 15 14 16 17 16 17 17 15 14 13 12 11 10 12 13 13 13 13 13 13 13 12 11 10 10 9 9 9 8 8 9 8 8 8 9 9 8 8 9 10 10
12 12 13 15 6 10 14 14 10 9 15 15 14 13 12 10 6 8 7 10 14 14 7 15 17 15 15 11 11 16 19 15 18 20 18 18 16 16 14 13 10 13 16 16 16 14 14 16 17 17 17 17 16 17 18 15 13 12 11 13 13 13 13 14 14 12 11 11 11 10 10 9 9 9 8 8 8 7 7 7 8 9 9 9 8 9 10
13 12 13 12 13 14 9 4 3 4 9 4 7 6 5 4 5 8 7 9 13 10 11 13 12 11 6 14 12 16 22 22 20 18 18 19 19 17 14 12 14 11 16 16 15 17 17 16 17 16 17 17 15 16 16 16 16 13 13 13 12 12 13 13 11 11 10 11 10 9 9 10 9 7 6 5 6 6 7 7 9 10 9 8 8 9 9
13 15 13 11 13 8 4 3 0 7 5 4 4 3 6 7 11 11 8 6 7 9 10 11 10 8 8 7 10 11 15 15 16 18 21 23 23 21 18 16 19 15 15 16 16 17 16 17 16 16 17 18 18 15 15 18 17 13 13 13 12 12 12 11 10 10 9 9 9 9 9 9 9 9 8 6 6 6 7 7 7 7 8 8 7 7 7
8 10 11 12 9 5 6 4 3 5 4 9 1 6 7 7 9 10 7 6 6 8 9 10 8 6 7 8 10 11 9 11 16 14 12 12 15 16 12 13 6 13 15 16 16 16 16 16 17 17 18 17 17 15 15 15 15 14 13 13 12 11 11 10 9 9 9 10 10 9 9 8 7 7 7 7 8 8 8 7 7 7 6 6 7 6 7
11 10 10 7 7 1 11 9 6 4 2 3 5 8 2 6 8 9 8 7 8 7 9 7 7 5 6 9 13 17 15 13 17 14 4 7 6 10 14 11 13 8 10 13 15 17 15 15 15 16 16 15 14 13 13 13 14 14 14 13 13 13 12 12 12 12 10 10 10 9 8 7 6 6 6 6 6 7 8 7 5 5 6 5 6 6 6
12 11 12 7 7 6 6 6 9 7 6 4 7 3 3 4 8 8 9 10 11 10 9 7 7 9 12 13 13 16 20 20 16 8 6 4 13 13 16 13 15 11 12 12 13 14 11 14 15 15 15 14 14 14 13 13 14 14 14 13 12 11 11 11 11 10 9 8 7 6 7 7 6 5 5 5 5 6 6 5 7 7 6 7 6 6 6
11 10 8 10 9 5 14 12 8 6 8 3 4 4 7 10 10 12 14 14 14 15 13 13 12 13 13 13 14 15 15 15 7 11 11 2 5 10 6 12 13 15 12 13 15 13 13 13 14 13 14 15 14 14 14 14 13 14 14 14 13 12 12 12 12 11 10 11 9 7 7 7 7 6 5 4 4 6 6 7 8 7 7 7 8 8 7
12 13 12 7 5 7 10 10 6 8 6 4 5 6 5 9 8 9 9 10 13 16 16 17 17 15 13 11 11 12 14 15 6 4 4 2 4 10 4 6 9 11 11 10 11 11 12 12 12 13 15 16 15 15 15 14 14 15 14 14 13 13 12 11 11 11 10 11 8 7 7 7 6 6 5 5 6 6 6 7 7 7 6 7 6 7 6
11 8 8 1 2 9 8 6 12 10 8 8 8 7 8 6 8 8 8 9 9 9 12 15 18 17 14 14 14 12 16 11 2 7 14 12 4 4 6 7 7 7 9 10 11 12 10 12 11 13 14 16 16 16 14 14 15 15 15 14 13 12 11 11 10 11 10 9 8 7 7 7 6 7 7 5 6 6 6 6 6 6 6 6 6 6 7
13 14 8 5 5 8 10 11 9 8 9 10 9 10 7 7 7 8 8 9 11 12 11 9 10 12 14 15 15 16 15 14 13 13 12 16 22 15 2 5 8 9 8 11 12 12 12 13 12 12 13 15 16 15 14 14 14 14 14 13 12 12 12 11 11 11 10 10 8 7 7 6 6 6 6 7 6 5 5 5 5 6 6 6 6 6 7
5 4 9 11 8 1 7 8 9 9 10 9 10 11 10 10 9 10 11 10 13 14 15 14 11 12 14 14 14 13 13 14 12 10 11 12 13 17 20 25 19 1 11 12 12 13 14 13 13 13 15 13 14 13 13 13 13 13 13 13 12 11 11 10 10 9 9 7 7 7 6 6 6 5 5 4 5 6 5 5 5 5 4 5 6 7 8
2 8 6 11 15 14 10 9 10 11 12 13 11 10 12 14 14 14 15 15 16 16 16 14 12 12 13 14 14 12 12 11 12 10 8 11 14 13 11 8 11 13 10 7 8 10 9 8 11 13 14 15 15 14 14 15 14 12 11 11 11 11 11 9 8 7 7 11 9 6 5 6 5 4 3 2 4 4 3 4 6 6 6 6 7 8 9
9 9 11 11 15 17 16 13 9 10 11 13 16 16 15 14 15 15 17 18 17 17 17 16 14 12 13 12 12 15 13 11 10 11 8 10 12 9 9 6 4 2 6 8 8 9 10 8 10 13 15 15 16 16 14 14 12 12 11 11 11 11 9 8 7 7 7 7 8 8 8 8 8 7 5 5 5 5 6 5 1 6 6 6 6 6 8
4 6 4 7 4 7 9 12 13 13 12 13 14 15 16 16 15 14 16 17 17 18 18 18 17 15 12 14 14 13 8 8 11 11 5 9 12 10 7 5 6 1 6 12 10 11 11 10 11 13 15 14 14 14 13 13 12 12 12 11 11 11 9 9 10 8 7 8 9 8 8 7 7 8 12 13 11 6 4 8 8 7 7 5 6 8 7
3 3 4 5 10 11 9 10 11 13 12 14 16 15 15 14 15 16 17 16 17 18 18 18 18 17 16 13 11 12 11 7 9 8 5 9 7 7 8 10 8 6 5 9 11 11 10 9 11 12 12 13 12 13 11 11 12 11 11 10 9 10 11 11 10 9 9 9 8 8 8 8 7 8 7 9 15 16 11 9 9 10 12 11 11 11 9
5 5 3 1 7 9 9 10 11 11 11 12 15 15 14 13 14 16 17 17 15 14 16 18 18 18 18 16 15 12 8 8 4 1 2 6 7 10 10 9 8 9 10 10 11 10 8 9 10 10 13 13 11 12 11 10 10 8 8 7 9 9 9 10 10 9 10 9 9 8 8 7 7 7 7 7 8 13 13 11 12 13 12 10 11 13 13
3 6 10 6 12 12 10 11 11 12 12 12 11 12 11 11 12 13 14 14 14 15 14 15 15 17 18 19 18 17 16 14 11 10 9 8 11 12 13 14 13 10 11 10 11 11 11 11 12 12 11 11 10 10 9 9 8 7 6 4 7 9 10 10 9 10 11 9 8 8 8 8 7 7 7 7 8 5 7 10 14 14 14 13 12 12 12
2 5 11 9 9 11 11 11 12 11 10 10 10 9 10 10 10 11 13 12 12 14 14 14 14 15 17 17 17 19 18 18 18 16 14 14 14 14 15 15 13 11 11 10 10 11 12 12 11 11 11 12 11 9 9 7 5 3 5 10 11 9 9 11 10 10 10 9 8 7 7 7 7 8 8 8 7 8 7 6 7 10 13 14 11 12 12
8 6 8 11 13 14 12 11 9 10 11 10 10 9 7 7 8 8 8 11 12 13 14 14 12 11 11 13 14 16 16 15 16 16 16 16 17 16 13 12 12 13 13 11 9 9 10 9 9 9 9 9 9 9 9 8 5 7 8 6 7 11 16 12 10 10 9 8 8 7 7 7 7 8 8 8 9 8 8 8 8 8 6 5 9 10 7
11 13 11 9 10 11 10 10 10 11 10 10 10 10 10 8 10 11 12 12 11 12 14 13 13 13 12 11 12 13 15 17 16 16 16 17 16 15 16 14 13 12 10 9 8 7 8 8 9 9 9 8 7 7 8 7 7 7 6 6 6 8 10 12 8 6 7 6 6 7 7 7 7 6 7 8 9 8 8 8 8 8 7 6 4 5 11
11 11 11 11 12 11 11 10 11 11 9 9 11 10 10 11 12 13 14 13 11 12 13 13 13 11 10 10 12 12 11 12 14 17 15 14 15 16 16 15 14 14 11 10 9 7 8 8 8 7 7 7 8 9 9 10 9 8 8 7 7 6 7 7 7 7 7 7 7 7 6 6 6 6 7 7 8 9 8 8 8 8 8 8 7 5 5
10 10 11 13 14 14 13 12 10 10 10 10 11 11 11 11 12 12 12 12 11 11 10 12 12 12 10 10 12 11 11 11 10 12 14 14 14 15 15 14 14 14 12 12 11 9 8 7 7 6 5 5 7 6 7 5 6 7 7 7 7 5 4 4 6 7 7 7 8 8 7 5 6 6 7 7 7 7 8 8 8 9 9 8 8 7 7
11 11 14 14 13 12 12 11 10 10 9 10 10 11 11 12 12 11 11 10 8 8 8 9 8 9 9 8 7 7 7 8 8 9 11 13 13 13 13 14 13 11 11 11 11 9 8 6 4 5 5 5 7 5 5 4 4 6 5 6 6 11 12 10 7 8 7 6 7 7 7 6 6 5 6 5 6 6 7 7 8 8 8 8 7 7 7
12 13 13 11 10 10 10 8 9 9 9 9 10 10 10 11 11 11 10 10 9 7 8 9 10 9 7 6 5 5 6 6 7 7 9 11 13 13 11 11 11 11 10 11 12 11 6 5 6 4 2 4 5 5 3 3 3 5 5 6 8 7 7 9 6 6 6 6 6 5 5 6 6 6 5 5 6 7 7 7 7 7 7 7 7 7 8
10 11 11 10 9 9 8 7 7 8 8 9 9 9 9 9 10 10 10 9 9 8 7 6 5 3 4 5 5 7 5 4 5 7 9 10 9 9 12 11 11 9 9 9 10 9 9 6 7 8 3 2 3 4 6 4 4 5 5 6 6 7 6 5 7 6 6 6 5 5 5 4 4 5 6 5 5 6 6 6 6 7 6 6 7 7 9
10 9 7 7 7 7 7 7 7 6 8 8 8 9 9 10 10 9 9 9 9 9 8 5 6 5 5 5 2 3 4 3 3 5 7 6 5 5 5 9 6 5 8 11 11 9 7 6 5 6 7 6 3 4 5 6 1 4 5 4 6 5 5 6 7 6 5 4 5 6 5 6 6 4 4 5 5 4 6 7 7 7 5 5 6 8 11
10 11 9 9 8 8 8 9 8 6 6 8 8 8 8 8 8 8 8 8 8 7 6 8 6 4 5 5 6 6 7 4 4 5 3 0 2 3 1 3 5 2 5 3 6 5 7 7 8 8 8 6 7 4 2 2 4 2 5 6 5 5 4 5 5 4 4 5 4 5 5 5 5 5 5 5 5 4 4 4 5 6 8 7 6 6 6
10 9 8 8 8 9 9 9 8 9 8 7 7 8 8 8 8 8 8 7 7 7 6 6 8 8 7 6 6 8 7 8 6 4 4 1 2 2 3 1 3 2 5 4 3 4 3 4 8 8 6 7 4 5 7 3 4 4 3 2 5 3 4 4 3 3 3 4 3 3 2 4 6 4 4 3 4 4 5 4 4 4 8 7 7 7 6
9 8 8 7 7 8 9 8 8 8 7 7 7 7 7 8 8 6 7 7 6 6 5 6 7 7 7 8 9 8 7 6 5 4 4 3 3 2 5 4 5 7 4 5 4 5 4 5 7 8 6 5 1 6 6 10 1 1 4 1 3 3 4 5 4 4 4 5 4 5 5 5 5 4 4 3 4 3 4 5 4 4 9 8 8 7 6
8 8 8 7 7 7 6 7 7 8 8 9 8 8 7 7 7 7 7 7 6 5 5 6 7 7 7 7 7 8 8 7 6 4 3 2 2 2 4 5 5 5 5 5 6 4 4 5 7 3 3 3 4 4 6 8 6 2 1 2 3 4 5 5 6 4 4 3 4 5 5 5 5 4 4 4 3 3 4 4 3 4 7 8 7 7 6
9 8 8 7 6 7 7 8 9 8 8 8 8 8 8 8 8 8 9 8 7 7 7 6 6 6 6 6 6 7 8 7 8 7 6 5 5 4 5 5 5 4 4 4 6 3 5 6 6 2 4 2 3 5 4 4 3 2 1 1 3 4 4 6 7 5 5 5 5 4 4 5 4 4 3 3 3 3 3 4 4 4 4 6 7 5 5
8 8 9 9 9 9 10 10 10 10 9 9 9 9 9 8 9 9 8 8 7 7 7 6 6 6 5 5 5 6 5 5 5 6 6 4 3 5 5 5 5 5 5 6 5 5 9 8 2 5 4 4 4 4 5 5 2 2 2 2 1 3 4 1 6 6 6 5 5 4 4 3 3 4 3 4 3 3 4 4 3 4 4 4 5 6 6
9 8 9 9 10 10 10 9 9 9 8 8 9 9 9 9 9 9 8 8 7 6 5 5 6 6 7 7 5 4 4 5 6 6 5 5 5 5 6 6 5 6 7 5 4 5 6 9 9 6 4 4 5 7 3 3 2 3 2 1 2 2 4 4 4 5 6 6 5 5 5 5 4 4 5 4 3 3 3 4 4 4 5 6 5 6 6
10 10 10 10 9 10 9 8 8 9 8 8 9 9 10 10 10 9 7 6 6 6 5 5 7 6 6 6 7 7 6 6 5 6 7 6 6 4 4 5 5 6 10 9 5 5 5 6 7 6 7 5 4 8 10 4 2 1 1 1 1 2 3 3 3 3 3 4 5 4 4 4 4 3 4 4 5 4 5 6 5 4 5 6 4 4 4
9 9 8 8 8 8 9 9 9 9 9 8 9 9 10 9 9 8 9 8 8 7 8 7 7 6 6 5 4 5 5 5 6 6 6 8 9 8 6 4 5 6 11 7 7 5 6 5 5 5 9 8 6 9 9 3 2 2 2 3 2 2 3 3 3 2 2 2 1 4 5 2 5 4 4 5 4 5 4 2 2 1 2 1 1 1 2
9 8 7 7 7 7 6 7 8 8 7 7 7 7 7 7 6 6 5 5 7 8 7 7 6 6 6 4 6 4 4 5 5 5 4 4 5 6 5 5 4 7 10 5 5 6 6 6 5 7 10 12 12 11 7 3 3 2 1 3 2 2 3 3 2 3 3 1 3 4 7 4 3 4 2 2 4 3 3 3 3 2 2 2 3 4 3
6 6 7 8 7 6 6 5 6 8 7 7 6 5 5 7 5 6 6 6 6 5 6 5 6 6 5 5 5 3 4 3 5 4 4 5 5 5 4 5 5 4 6 7 5 4 5 4 5 10 10 11 12 12 6 2 2 2 2 3 4 3 2 2 4 4 5 6 6 4 3 3 2 3 3 2 2 3 3 3 3 3 3 3 3 2 3
7 7 7 7 7 5 4 6 6 6 6 6 6 5 6 5 5 4 3 4 3 5 5 6 4 4 6 5 4 6 8 6 6 5 3 4 4 4 3 6 4 4 5 5 2 3 2 3 5 6 9 11 12 7 6 3 2 2 1 1 1 1 2 3 3 3 2 2 2 2 1 1 1 3 3 2 2 2 2 1 1 3 5 4 4 2 1
7 6 6 6 7 5 5 6 6 7 6 5 5 5 5 5 6 6 6 5 6 2 2 4 5 4 5 6 6 6 5 4 5 6 8 3 5 4 5 9 9 8 5 2 3 3 1 1 1 2 4 7 9 6 5 7 2 4 3 3 2 2 1 2 1 1 0 1 2 1 2 1 2 2 3 2 2 3 3 3 5 4 2 1 1 1 1
5 5 5 5 7 6 5 6 6 6 6 5 4 4 4 3 4 5 6 5 7 4 4 3 7 6 5 5 6 6 5 5 5 6 6 6 6 6 4 3 6 11 10 3 5 3 4 4 2 2 3 4 5 4 6 5 6 7 7 1 2 3 3 2 3 4 3 3 3 4 6 6 5 5 3 4 3 4 4 4 4 3 2 2 1 2 2
5 6 7 8 8 8 7 6 8 8 7 6 5 5 4 3 3 3 3 5 5 5 6 7 7 6 6 5 4 5 5 4 4 3 4 5 6 5 6 3 4 5 5 4 6 0 7 6 5 4 5 6 3 3 3 3 4 5 5 7 5 3 2 2 3 2 3 4 6 5 3 3 3 2 3 3 3 4 4 3 2 2 2 2 3 2 1
5 6 7 7 7 8 9 8 7 7 6 7 8 7 7 6 4 5 5 6 6 5 4 4 4 4 5 3 4 5 6 7 6 5 5 5 5 4 2 4 5 9 9 6 5 3 7 9 7 7 5 5 3 1 2 2 2 3 5 4 5 5 3 5 4 4 1 1 3 2 3 3 4 4 3 3 3 2 2 2 2 3 5 2 3 3 2
7 6 6 5 6 7 8 7 7 7 6 6 7 6 6 6 6 5 5 6 6 5 6 5 5 6 6 4 3 4 4 4 5 6 4 5 5 7 7 7 7 6 6 7 6 7 3 4 5 6 6 6 5 3 2 2 2 2 4 3 3 4 5 4 3 3 4 5 4 2 1 2 3 2 3 3 4 4 3 2 2 2 3 2 2 3 2
4 5 2 6 8 7 5 5 5 3 5 5 4 5 5 5 5 6 6 8 6 6 6 6 6 6 7 7 6 5 4 5 4 4 5 6 7 8 8 8 6 8 8 6 7 7 6 8 8 7 7 5 5 7 7 2 5 4 2 2 2 2 3 3 4 4 4 3 3 4 3 2 3 5 4 2 2 2 1 2 3 3 3 3 3 3 3
Wind_Direction
227 244 249 238 222 213 226 214 213 211 223 240 229 220 230 228 231 239 228 204 229 258 257 250 219 211 155 147 167 200 227 261 252 249 142 160 160 154 161 167 176 181 183 176 180 182 187 185 189 191 189 190 190 192 195 195 195 193 186 184 185 182 186 191 189 188 187 188 190 191 190 188 190 192 193 192 183 179 185 192 194 195 193 185 177 181 181
214 225 240 249 249 218 210 226 218 215 217 223 240 239 223 229 238 236 231 239 221 227 249 255 261 266 227 203 176 178 186 204 241 214 171 172 161 150 165 178 181 184 182 182 177 182 182 185 187 190 189 190 192 193 193 191 194 192 182 181 185 183 185 189 184 183 184 185 187 187 188 188 190 190 191 192 189 186 186 190 191 188 180 184 181 181 182
230 215 222 237 246 256 250 219 239 239 214 214 221 232 242 234 234 239 235 234 244 234 234 240 248 260 263 244 231 222 202 195 214 233 234 207 182 156 171 173 193 189 190 188 180 181 185 186 187 191 191 192 193 196 194 192 193 191 181 179 184 183 184 183 180 178 180 183 183 187 187 185 186 188 191 192 194 189 186 187 189 178 175 184 186 184 184
238 233 215 216 229 243 252 254 229 239 252 211 200 229 231 245 249 227 228 231 232 228 230 239 229 231 241 252 250 244 235 213 210 221 219 227 180 170 184 187 187 191 192 188 187 184 185 187 189 187 187 189 191 200 196 197 193 190 183 180 182 182 178 176 175 175 177 178 180 182 181 181 182 187 189 194 196 189 184 185 191 180 178 182 184 185 187
239 240 226 218 218 225 232 235 239 237 231 263 251 211 212 230 243 251 241 238 236 233 222 225 231 243 237 234 242 244 241 229 239 221 218 221 231 207 182 178 182 188 190 191 187 186 185 187 185 190 186 183 192 198 200 196 192 192 184 180 178 175 172 172 170 170 169 173 174 174 177 175 173 178 186 193 197 190 185 182 183 183 182 178 186 188 187
227 235 243 238 235 230 228 224 233 243 250 218 222 247 232 209 205 227 247 260 245 218 238 253 245 234 246 243 221 251 259 275 264 265 244 215 214 228 207 178 184 181 190 188 189 185 185 186 190 189 184 188 190 192 197 193 196 196 180 175 173 170 166 168 164 164 166 169 172 172 167 170 172 179 188 194 195 183 173 168 176 180 189 186 187 189 187
231 225 229 233 234 236 239 241 231 234 241 252 255 248 243 240 233 229 219 219 241 262 257 248 258 274 281 276 246 223 247 251 255 259 249 242 235 224 232 214 175 179 181 186 183 184 187 188 184 181 183 184 181 187 191 193 198 196 178 165 168 164 161 156 158 163 166 167 167 165 166 172 176 185 189 189 189 185 182 174 179 189 189 195 190 189 185
227 227 216 227 230 241 245 245 236 239 247 243 242 244 251 257 359 360 343 292 229 210 216 235 247 233 243 258 265 258 247 250 252 251 250 249 246 248 247 241 210 172 181 182 182 186 183 176 181 182 183 184 188 190 189 191 193 194 173 162 163 158 157 157 160 160 161 159 156 157 162 168 178 186 185 188 194 193 191 183 181 180 187 199 193 192 188
229 218 227 238 279 254 241 250 235 225 226 227 237 252 249 261 306 277 33 337 348 356 287 220 214 220 228 237 235 236 240 244 250 253 257 256 255 252 247 246 229 179 181 181 181 174 172 177 177 181 181 183 186 187 190 190 187 182 166 162 162 157 156 161 159 155 152 153 157 162 164 168 181 184 186 186 192 190 193 187 178 179 184 192 189 193 190
216 226 227 230 228 232 208 85 125 27 26 0 61 50 350 358 30 27 9 350 348 337 338 3 2 348 290 229 226 217 225 231 239 246 252 255 260 259 249 242 241 201 184 179 167 169 171 178 179 178 177 179 179 184 184 182 180 175 166 160 156 151 159 162 156 158 154 155 158 164 168 171 170 171 182 181 186 180 187 177 184 187 183 188 189 187 186
199 218 227 223 229 217 53 239 167 56 18 290 82 281 269 58 37 43 5 359 336 323 351 350 5 342 320 307 240 207 213 219 227 237 236 236 239 244 246 235 234 203 172 165 160 168 170 176 176 173 175 177 179 180 180 180 179 171 163 154 153 157 155 150 153 148 147 154 156 164 168 172 171 171 180 182 185 178 190 191 190 182 184 185 173 173 177
218 225 223 226 226 208 186 141 70 64 61 48 343 239 230 34 15 26 22 0 348 5 359 358 333 327 305 297 320 307 252 250 259 250 244 233 223 229 234 260 189 165 156 149 158 164 169 177 174 168 171 175 181 178 176 172 170 162 156 150 146 149 151 149 149 142 152 153 155 164 163 171 171 169 167 179 188 187 195 197 199 188 169 165 158 160 154
215 219 234 251 232 31 151 181 144 163 207 309 231 227 56 2 7 9 9 350 8 0 348 337 301 312 302 310 301 291 298 282 265 269 341 337 283 238 233 229 126 138 148 149 160 168 173 172 171 169 170 170 171 169 167 171 160 154 147 146 151 154 150 151 150 152 155 156 155 154 159 168 169 159 160 179 184 171 179 183 151 135 150 147 137 134 155
215 221 235 216 249 197 194 165 164 182 132 186 219 72 252 353 4 356 346 349 353 353 334 323 304 308 309 310 310 302 290 285 309 311 238 30 352 291 236 151 153 145 158 154 164 167 163 172 166 162 163 163 160 159 162 161 150 142 141 142 142 143 145 144 144 143 134 125 135 150 154 158 160 163 160 169 169 159 171 152 151 154 151 166 159 152 176
212 215 226 239 236 136 214 169 199 144 221 103 49 352 30 23 29 17 15 8 358 349 335 325 318 310 313 319 317 298 292 297 16 355 326 79 100 25 71 142 141 150 150 162 168 169 165 165 158 157 156 153 152 153 155 147 143 138 135 137 135 136 136 140 142 142 138 140 148 158 153 157 154 156 145 150 137 143 144 148 163 170 166 164 170 175 171
218 218 223 228 238 183 163 166 206 96 73 74 52 18 46 33 24 26 19 14 1 353 337 326 317 311 301 297 300 303 285 273 287 273 307 328 96 125 155 109 144 150 145 160 164 158 163 153 153 147 148 148 148 150 144 140 135 132 134 133 137 141 144 145 141 135 136 143 152 154 148 146 148 142 139 151 141 151 151 155 164 161 155 163 169 177 169
219 234 230 134 89 122 171 125 97 100 98 78 67 67 62 36 45 28 21 10 1 339 325 324 313 303 312 316 313 320 322 280 350 19 357 348 277 187 143 146 140 144 154 162 144 145 145 139 136 138 141 142 140 138 136 131 131 135 135 138 141 142 138 133 133 139 143 151 151 151 145 147 141 135 138 136 137 147 152 151 162 160 164 161 145 133 125
77 59 49 81 120 158 134 113 119 125 102 72 65 60 59 44 42 34 28 24 12 7 18 3 331 354 0 8 8 5 359 12 26 27 26 19 5 0 329 164 156 156 147 130 136 129 124 119 122 126 132 132 130 126 128 130 136 135 134 133 133 133 135 139 144 141 142 144 141 128 118 117 120 130 137 144 144 150 152 148 155 162 164 160 149 134 125
128 51 9 47 24 19 121 154 115 94 82 90 85 78 69 61 58 54 44 42 41 34 27 25 21 8 8 6 4 7 18 12 8 33 40 35 43 46 27 351 330 114 132 137 127 123 120 123 120 118 115 115 119 125 127 129 129 127 126 128 131 133 134 132 126 130 132 130 117 113 114 103 97 98 103 139 151 164 162 167 162 153 150 155 147 141 138
126 121 109 67 59 58 77 97 85 75 72 74 82 95 96 80 69 60 54 51 44 37 38 31 27 16 13 8 357 2 8 16 355 346 58 71 64 53 40 28 343 338 357 23 75 98 100 108 124 117 117 123 126 124 126 130 129 122 119 121 120 120 120 120 124 123 121 126 122 112 86 81 77 88 113 160 170 175 183 180 177 170 176 171 167 158 150
99 67 58 76 70 58 57 70 96 95 84 75 67 64 70 74 73 66 60 56 50 43 40 32 28 21 10 11 10 12 5 351 359 348 7 60 76 67 60 43 345 318 84 92 99 108 118 117 111 117 121 121 122 123 126 127 119 110 106 106 110 112 110 114 109 106 107 116 103 96 87 75 67 57 28 357 46 63 33 9 318 183 183 164 167 153 136
158 106 86 350 70 76 54 60 81 88 92 90 84 72 67 64 65 67 68 58 50 49 42 35 33 29 16 11 17 18 350 341 325 317 16 57 62 56 39 3 290 54 108 111 104 97 96 106 113 111 110 111 114 113 118 118 118 115 119 124 128 131 136 137 139 136 137 112 104 106 102 102 97 79 64 56 32 36 46 3 9 32 101 138 143 137 127
122 125 92 70 84 88 78 58 67 81 88 85 81 77 76 72 67 65 63 58 50 46 42 35 33 35 34 22 31 27 346 340 285 281 28 61 72 120 163 195 200 197 123 93 98 98 100 103 104 101 103 107 106 111 115 121 127 130 132 134 144 147 148 148 146 144 116 109 115 107 111 112 109 105 94 52 49 44 39 25 24 56 83 85 103 123 138
35 53 91 84 94 98 95 74 65 58 61 70 78 82 80 75 73 70 65 59 54 49 45 39 31 32 31 25 29 43 44 48 17 355 181 136 187 131 117 105 96 80 68 70 74 79 84 86 85 90 95 97 101 107 112 117 124 132 146 152 154 158 149 123 131 134 120 118 119 119 117 116 112 123 114 104 59 41 36 33 43 48 48 74 110 123 121
157 124 106 92 104 105 93 82 72 68 60 62 62 53 49 64 70 70 74 71 61 56 50 42 34 26 27 26 28 26 20 14 8 7 29 62 55 57 70 71 67 64 65 65 67 65 68 72 75 82 89 92 95 100 111 121 135 139 158 150 106 94 103 121 119 104 112 117 121 127 136 133 136 136 135 128 123 106 42 50 58 57 53 49 64 93 114
95 151 131 134 139 118 109 91 75 68 69 72 71 68 63 47 46 61 74 77 72 63 55 44 39 38 36 30 22 18 20 15 7 7 25 30 37 43 49 53 60 71 74 73 73 75 77 80 87 94 98 106 104 107 108 103 100 116 84 94 111 116 120 121 116 115 119 126 132 136 147 153 157 160 156 153 147 139 129 124 80 62 54 47 52 76 69
37 343 125 106 77 65 65 74 81 72 67 61 69 74 72 74 61 60 65 75 77 70 64 56 50 41 45 42 34 26 23 11 8 16 20 23 28 26 37 56 54 59 63 63 63 79 91 96 95 93 95 99 105 106 112 111 108 96 97 101 107 120 118 115 115 124 128 137 143 147 156 160 160 169 162 155 150 158 159 151 145 136 129 74 25 25 85
45 49 40 72 83 81 86 91 96 90 77 68 62 65 69 67 66 58 50 48 53 70 65 55 49 41 40 36 39 33 24 17 10 10 17 19 15 15 20 35 51 51 57 61 66 62 71 81 87 91 94 97 99 96 104 101 82 90 98 107 120 128 128 128 132 135 142 145 145 144 161 165 172 159 146 151 160 169 162 155 147 144 132 102 98 73 76
47 52 52 59 72 62 47 49 66 65 66 73 70 58 59 62 60 57 52 44 29 35 53 50 53 52 38 37 40 40 35 26 10 7 6 11 12 10 13 22 35 33 36 39 43 44 63 69 81 90 103 117 122 124 125 123 129 126 125 132 134 131 135 144 140 143 136 138 137 145 156 154 149 141 153 157 164 164 165 163 143 136 122 128 130 120 103
67 58 55 55 53 52 51 48 53 60 62 61 60 56 54 60 63 60 57 48 43 38 31 45 48 41 36 35 37 37 36 32 25 9 358 8 15 11 7 11 25 31 27 23 20 26 51 61 68 79 93 103 101 111 123 126 119 129 133 135 136 147 161 124 130 117 126 140 135 133 152 160 150 155 164 167 167 150 149 143 133 131 142 154 153 147 151
74 71 66 63 59 56 56 50 48 43 47 51 53 61 59 58 64 65 63 65 59 62 56 52 47 40 35 37 35 42 42 27 25 24 3 5 13 10 6 8 17 21 20 13 9 4 17 28 57 60 26 81 109 108 105 87 91 92 78 82 90 86 85 86 101 129 137 127 132 157 162 159 157 158 146 152 142 142 137 134 136 143 146 154 158 159 144
82 77 73 68 64 68 68 63 60 55 51 51 52 52 52 60 60 59 63 64 68 76 79 66 52 39 20 5 357 25 33 25 15 13 23 15 11 2 355 1 3 7 14 15 11 9 8 21 353 8 43 52 66 90 86 70 92 108 117 109 103 106 98 105 115 111 136 139 164 162 152 157 157 153 146 154 147 144 145 151 146 142 152 158 165 154 140
76 75 74 78 88 83 80 74 73 69 59 52 52 52 52 51 61 65 64 64 67 72 81 99 111 120 85 30 360 13 17 27 25 38 37 24 22 3 344 350 354 355 10 7 11 10 7 15 337 336 19 91 129 149 149 164 179 142 132 134 130 121 131 130 123 140 152 168 163 158 158 153 156 155 151 144 152 150 152 152 153 149 160 169 172 145 145
74 79 83 66 54 57 69 97 115 100 91 74 56 52 56 54 51 53 53 57 59 53 52 81 152 188 182 154 130 93 71 78 47 40 56 29 347 347 355 333 352 23 23 1 2 353 353 43 25 321 320 319 265 193 163 187 124 95 98 90 114 132 138 128 141 160 159 158 150 164 157 152 144 140 145 151 158 170 156 167 157 166 155 81 76 115 132
75 76 72 68 61 61 64 60 60 69 77 80 79 73 64 68 69 61 49 49 48 44 43 42 33 99 105 149 165 164 134 94 82 77 63 245 205 263 21 297 313 9 83 55 333 340 338 4 15 348 349 301 280 247 148 55 81 90 110 128 130 147 149 147 177 158 164 140 159 165 152 154 145 145 154 153 154 141 152 157 156 142 104 108 105 105 128
74 72 69 65 65 65 61 64 65 62 55 56 60 63 65 61 60 64 61 52 47 37 40 45 26 17 43 34 52 56 77 113 115 125 152 157 344 23 12 281 299 182 142 101 343 333 336 23 348 343 312 315 292 40 12 325 174 162 135 158 136 167 151 151 131 117 110 117 135 121 181 109 103 119 134 145 137 143 150 156 157 142 120 120 126 129 128
75 76 71 69 71 73 73 74 78 79 73 66 59 62 66 70 74 71 66 63 53 48 49 51 35 37 38 41 43 47 51 45 67 71 62 35 47 359 16 349 16 1 59 64 2 327 343 9 338 321 310 288 299 61 18 17 258 117 111 191 163 173 157 170 143 130 128 147 157 127 105 109 126 128 135 150 148 153 157 160 152 131 115 133 131 138 141
77 76 73 69 69 75 82 85 74 72 68 65 60 56 58 64 67 71 71 67 48 40 41 45 50 47 33 24 40 39 38 37 52 51 62 74 92 69 55 20 21 9 24 22 335 329 17 346 339 341 309 11 28 71 52 30 44 83 155 192 183 164 176 162 125 122 111 129 128 136 142 146 138 162 165 161 158 174 162 176 176 162 136 143 148 148 159
87 88 93 93 85 76 71 67 72 76 73 76 74 67 59 55 53 57 55 46 34 27 43 44 46 48 34 36 43 42 34 24 23 19 44 48 31 48 67 49 41 19 2 355 315 34 6 329 311 68 24 20 50 59 48 32 56 78 80 215 166 156 163 145 143 139 144 150 148 160 162 152 163 164 161 165 149 153 148 150 173 166 174 153 146 162 162
85 84 84 84 81 72 66 59 51 48 54 60 69 73 69 65 61 58 59 59 48 39 30 26 33 31 32 40 53 51 41 26 37 42 30 53 70 61 52 48 39 39 22 16 3 27 7 340 84 43 24 32 32 37 44 13 38 89 108 86 30 135 120 154 143 136 136 146 148 134 115 123 139 160 147 123 128 143 152 146 173 161 167 150 179 168 156
70 70 70 69 72 71 75 78 79 79 77 79 83 85 81 79 76 69 64 63 57 53 59 52 44 31 14 1 29 77 67 48 44 48 40 40 50 60 53 44 21 28 14 11 17 12 33 32 37 37 35 36 50 14 40 32 37 86 53 68 158 138 139 162 169 152 156 164 170 176 148 145 169 189 136 145 147 158 179 175 182 192 158 162 196 159 162
82 72 70 71 72 76 76 76 78 78 77 70 63 62 70 75 80 84 85 77 72 63 62 67 74 73 42 25 28 24 39 54 49 42 46 54 60 69 56 50 27 21 15 6 13 46 38 40 44 35 17 18 46 18 4 8 33 46 93 102 69 122 136 144 151 148 156 163 175 178 165 148 146 164 169 167 180 183 186 197 186 202 157 168 191 133 161
69 68 71 75 82 83 77 71 68 68 68 65 63 55 51 52 59 65 68 59 48 40 31 23 27 59 98 92 34 41 49 48 59 58 46 54 52 49 55 27 10 22 20 8 7 40 41 42 33 41 20 21 13 7 350 352 69 71 80 82 80 103 134 116 108 105 131 174 146 93 78 166 180 186 173 179 180 174 206 127 134 196 100 204 191 171 183
88 94 86 79 70 74 90 97 88 73 62 59 73 89 75 57 54 60 64 85 100 77 52 47 28 18 13 41 89 68 26 65 72 83 96 73 62 58 46 49 32 30 28 23 32 35 33 26 22 14 20 14 2 356 337 356 28 48 92 84 44 75 101 114 116 136 135 133 257 168 193 204 177 167 214 201 163 145 141 154 173 161 172 189 198 212 207
86 75 82 81 79 73 68 66 88 93 92 84 56 33 82 100 72 36 41 42 30 84 114 78 57 27 25 37 9 87 130 87 87 74 49 59 74 57 38 51 40 30 40 38 50 57 39 28 5 7 7 8 351 349 327 326 74 71 353 114 177 179 147 187 190 194 190 193 211 207 190 192 191 120 177 163 173 176 173 162 184 193 188 209 227 216 210
78 79 78 82 82 80 81 72 66 72 74 69 68 54 39 45 66 104 77 51 42 35 71 91 51 64 23 17 55 35 26 31 51 59 86 100 79 88 78 68 59 44 43 76 66 59 96 85 28 21 353 353 352 337 316 288 139 94 124 85 284 113 185 187 175 187 203 201 204 149 128 65 75 126 139 183 178 211 198 199 225 206 197 201 209 217 141
82 88 96 113 118 113 79 65 65 72 71 73 59 53 44 41 26 17 5 11 352 85 14 92 124 63 53 31 39 40 36 49 57 23 355 30 129 115 87 82 52 36 7 35 49 89 125 109 64 23 349 341 334 322 318 326 316 168 169 185 143 147 204 146 113 51 265 142 107 51 36 169 216 188 185 195 189 202 226 196 212 210 113 59 294 307 305
79 89 93 83 79 89 93 87 92 83 62 51 52 73 60 59 30 35 5 19 356 1 170 53 45 45 31 41 70 56 45 12 23 38 358 16 19 30 22 43 37 18 13 94 151 143 137 162 159 264 290 321 323 324 330 331 337 347 335 317 152 169 165 184 193 191 183 157 160 188 187 195 207 225 210 199 197 204 216 216 212 186 221 241 342 18 355
43 29 39 39 46 39 39 51 54 44 30 21 27 32 10 47 94 66 15 15 15 1 44 45 46 29 33 14 32 53 36 43 37 35 350 21 4 14 8 51 184 328 348 340 338 178 187 181 183 208 232 262 271 294 306 323 331 326 329 333 330 324 299 196 185 204 215 192 180 207 210 224 222 226 236 242 225 193 193 203 213 249 246 190 171 173 210
25 37 43 42 44 40 37 31 39 34 28 21 19 11 9 360 33 45 28 23 358 354 20 28 26 23 19 357 18 35 17 360 7 10 16 18 355 4 342 345 2 324 331 343 315 321 166 175 184 200 222 243 253 272 281 295 304 332 329 328 320 314 328 4 54 111 160 281 262 233 202 211 212 204 221 234 262 263 195 178 212 119 96 148 209 205 202
356 15 32 51 62 57 49 33 23 23 29 21 15 15 8 10 9 18 33 13 347 11 11 8 23 17 352 0 11 10 3 355 6 356 16 351 1 339 349 347 323 326 2 342 335 345 345 189 203 201 209 238 260 240 216 219 279 235 214 251 287 300 309 322 306 322 338 347 322 314 340 342 310 260 216 217 215 209 230 245 257 160 155 212 225 238 246
45 80 311 28 56 62 44 44 58 14 10 26 18 11 8 358 357 15 14 17 354 4 5 342 359 7 338 332 347 344 342 355 338 336 352 347 351 334 336 327 342 354 345 339 342 335 327 327 329 325 330 325 338 342 332 226 192 214 226 231 225 246 271 291 319 308 297 313 320 317 319 312 314 320 318 286 256 273 280 237 236 240 220 179 189 202 207